Simultaneous Nadir Overpasses (SNOs) Predictions

Prediction of SNOs between LANDSAT-8 and NOAA-19 Satellite Orbit:

Table of predicted SNOs for the next 14.0 days since TLE Epoch: 10/10/2020
Index Date (LANDSAT-8) Time (LANDSAT-8) Lat,Lon (LANDSAT-8) SZA (LANDSAT-8 ) Date (NOAA-19) Time (NOAA-19) Lat,Lon (NOAA-19) SZA (NOAA-19 ) Distance(km) Time Diff (sec)
1 10/10/2020 09:42:10 -80.01,-117.76 91.74 10/10/2020 09:41:21 -79.99,-117.88 91.78 3.34 49
2 10/10/2020 10:31:37 79.98, 49.61 88.23 10/10/2020 10:32:23 79.96, 49.71 88.24 2.56 46
3 10/12/2020 15:15:55 79.97, -21.56 89.05 10/12/2020 15:14:42 80.07, -22.22 89.05 17.22 73
4 10/12/2020 16:05:21 -80.00, 146.39 90.89 10/12/2020 16:05:36 -79.98, 146.29 90.91 3.40 15
5 10/14/2020 21:39:05 79.99,-117.16 89.93 10/14/2020 21:38:54 80.00,-117.29 89.93 3.08 11
6 10/17/2020 03:12:49 -80.01, -20.38 89.20 10/17/2020 03:12:07 -79.99, -20.35 89.24 2.58 42
7 10/17/2020 04:02:16 79.98, 146.94 90.75 10/17/2020 04:03:08 79.99, 146.99 90.79 1.35 52
8 10/19/2020 08:46:32 80.03, 76.30 91.64 10/19/2020 08:45:23 80.00, 76.30 91.59 2.93 69
9 10/19/2020 09:36:00 -80.00,-116.29 88.40 10/19/2020 09:36:22 -79.98,-116.19 88.40 2.85 22
10 10/21/2020 15:09:43 80.01, -19.63 92.42 10/21/2020 15:09:38 80.01, -19.75 92.41 2.31 5
11 10/23/2020 20:43:28 -80.00, 76.84 86.81 10/23/2020 20:42:54 -80.02, 76.82 86.81 2.57 34
